Location: Vancouver
(49.2500°N, 123.1330°W)
Time: 22:48:38
(UTC-07:00)

A-11 Canister half - Visible Passes

Search period start: 18 September 2014 00:00
Search period end: 28 September 2014 00:00
Orbit: 1526 x 1684 km, 47.3° (Epoch: 16 September)

Date Brightness Start Highest point End Pass type
(mag) Time Alt. Az. Time Alt. Az. Time Alt. Az.
18 Sep 9.3 00:06:30 10° W 00:13:28 55° WSW 00:13:28 55° WSW visible
18 Sep 10.8 02:11:24 10° WNW 02:29:47 13° SE 02:30:42 10° SE visible
18 Sep 10.1 04:28:15 23° SSW 04:28:15 23° SSW 04:32:41 10° S visible
18 Sep 9.8 19:38:47 10° S 19:46:10 27° SE 19:53:41 10° E visible
18 Sep 9.0 21:40:36 10° SW 21:49:48 62° SSE 21:54:44 32° E visible
18 Sep 9.0 23:45:00 10° W 23:53:01 67° WSW 23:53:01 67° WSW visible
19 Sep 10.7 01:49:53 10° W 01:51:19 16° W 01:51:19 16° W visible
19 Sep 10.6 04:09:42 15° S 04:09:42 15° S 04:11:22 10° S visible
19 Sep 9.0 21:19:09 10° SW 21:28:18 60° SSE 21:34:14 25° E visible
19 Sep 8.9 23:23:29 10° W 23:32:31 78° SW 23:32:31 78° SW visible
20 Sep 10.5 01:28:22 10° W 01:30:48 20° W 01:30:48 20° W visible
20 Sep 9.0 20:57:42 10° SW 21:06:48 59° SSE 21:13:40 20° E visible
20 Sep 8.8 23:01:59 10° W 23:11:29 81° S 23:11:57 79° SE visible
21 Sep 10.3 01:06:51 10° W 01:10:14 25° W 01:10:14 25° W visible
21 Sep 9.1 20:36:15 10° SW 20:45:19 57° SSE 20:53:05 16° E visible
21 Sep 8.8 22:40:28 10° W 22:49:57 80° S 22:51:22 68° ESE visible
22 Sep 10.0 00:45:20 10° W 00:49:39 31° W 00:49:39 31° W visible
22 Sep 9.1 20:14:49 10° SW 20:23:49 55° SSE 20:32:28 12° E visible
22 Sep 8.9 22:18:58 10° W 22:28:25 80° S 22:30:45 58° ESE visible
23 Sep 9.8 00:23:49 10° W 00:29:02 37° W 00:29:02 37° W visible
23 Sep 9.2 19:53:23 10° SW 20:02:20 54° SSE 20:11:32 10° ENE visible
23 Sep 8.9 21:57:28 10° W 22:06:53 80° S 22:10:08 48° E visible
24 Sep 9.6 00:02:18 10° W 00:08:24 45° W 00:08:24 45° W visible
24 Sep 9.3 19:31:58 10° SW 19:40:51 52° SSE 19:49:59 10° ENE visible
24 Sep 8.9 21:35:58 10° WSW 21:45:22 79° S 21:49:30 40° E visible
24 Sep 9.3 23:40:48 10° W 23:47:46 53° WSW 23:47:46 53° WSW visible
25 Sep 11.0 01:45:52 10° WNW 01:46:03 11° W 01:46:03 11° W visible
25 Sep 8.9 21:14:27 10° WSW 21:23:50 79° S 21:28:51 33° E visible
25 Sep 9.1 23:19:17 10° W 23:27:08 62° WSW 23:27:08 62° WSW visible
26 Sep 10.8 01:24:19 10° WNW 01:25:25 14° W 01:25:25 14° W visible
26 Sep 8.9 20:52:57 10° WSW 21:02:19 78° S 21:08:13 27° E visible
26 Sep 8.9 22:57:47 10° W 23:06:30 70° SW 23:06:30 70° SW visible
27 Sep 10.7 01:02:47 10° WNW 01:04:47 17° W 01:04:47 17° W visible
27 Sep 9.0 20:31:28 10° WSW 20:40:48 77° S 20:47:35 22° E visible
27 Sep 8.8 22:36:16 10° W 22:45:41 74° SSW 22:45:52 73° S visible
